,,,PA_Meas_PMT16A,,PR_Meas_QMR101_102,,RH_Meas_QMH101,,SR_Meas_QMS101,,TA_Meas_QMH101,,GenWind,,GenWind,
date,time,status,PA,status,PR,status,RH,status,SR,status,TA,status,DirAvg,status,SpdAvg,
2010-12-16, 00:00:05,VALID,1002,VALID,0,VALID,99.1678,VALID,0,VALID,25.4363,VALID,353,VALID,0.503125,
2010-12-16, 00:01:05,VALID,1002,VALID,0,VALID,99.2288,VALID,0,VALID,25.3955,VALID,350,VALID,0.575,
2010-12-16, 00:02:05,VALID,1001.96,VALID,0,VALID,99.1831,VALID,0,VALID,25.3779,VALID,352,VALID,1.06133,
2010-12-16, 00:03:05,VALID,1001.97,VALID,0,VALID,98.855,VALID,0,VALID,25.376,VALID,341,VALID,0.998828,
2010-12-16, 00:04:05,VALID,1001.95,VALID,0,VALID,98.6338,VALID,0,VALID,25.4169,VALID,357,VALID,0.699219,
2010-12-16, 00:05:05,VALID,1001.91,VALID,0,VALID,98.6033,VALID,0,VALID,25.3955,VALID,353,VALID,0.494531,
2010-12-16, 00:06:05,VALID,1001.91,VALID,0,VALID,98.2295,VALID,0,VALID,25.4169,VALID,347,VALID,0.828125,
2010-12-16, 00:07:05,VALID,1001.88,VALID,0,VALID,98.0998,VALID,0,VALID,25.4149,VALID,354,VALID,0.399609,
2010-12-16, 00:08:05,VALID,1001.87,VALID,0,VALID,98.054,VALID,0,VALID,25.4558,VALID,345,VALID,0.716797,
2010-12-16, 00:09:05,VALID,1001.86,VALID,0,VALID,98.0845,VALID,0,VALID,25.4539,VALID,349,VALID,0.591016,
2010-12-16, 00:10:05,VALID,1001.83,VALID,0,VALID,97.848,VALID,0,VALID,25.4539,VALID,349,VALID,0.783203,
2010-12-16, 00:11:05,VALID,1001.81,VALID,0,VALID,97.7946,VALID,0,VALID,25.4539,VALID,304,VALID,0.466016,
2010-12-16, 00:12:05,VALID,1001.81,VALID,0,VALID,97.6039,VALID,0,VALID,25.4325,VALID,339,VALID,0.690234,
2010-12-16, 00:13:05,VALID,1001.79,VALID,0,VALID,97.2835,VALID,0,VALID,25.4539,VALID,347,VALID,0.748438,
2010-12-16, 00:14:05,VALID,1001.78,VALID,0,VALID,97.375,VALID,0,VALID,25.4734,VALID,349,VALID,0.532812,
2010-12-16, 00:15:05,VALID,1001.76,VALID,0,VALID,97.1309,VALID,0,VALID,25.4734,VALID,351,VALID,0.590625,
2010-12-16, 00:16:05,VALID,1001.74,VALID,0,VALID,97.0928,VALID,0,VALID,25.4948,VALID,340,VALID,0.508203,
2010-12-16, 00:17:05,VALID,1001.72,VALID,0,VALID,96.8944,VALID,0,VALID,25.4928,VALID,340,VALID,0.36875,
2010-12-16, 00:18:05,VALID,1001.73,VALID,0,VALID,96.6884,VALID,0,VALID,25.4948,VALID,340,VALID,0.562109,
2010-12-16, 00:19:05,VALID,1001.66,VALID,0,VALID,96.8029,VALID,0,VALID,25.5142,VALID,320,VALID,0.213281,
2010-12-16, 00:20:05,VALID,1001.67,VALID,0,VALID,96.8944,VALID,0,VALID,25.5142,VALID,341,VALID,0.457812,
2010-12-16, 00:21:05,VALID,1001.64,VALID,0,VALID,96.3833,VALID,0,VALID,25.5142,VALID,340,VALID,0.733984,
2010-12-16, 00:22:05,VALID,1001.62,VALID,0,VALID,96.0018,VALID,0,VALID,25.5142,VALID,349,VALID,0.974609,
2010-12-16, 00:23:05,VALID,1001.6,VALID,0,VALID,95.9332,VALID,0,VALID,25.5123,VALID,344,VALID,0.413672,
2010-12-16, 00:24:05,VALID,1001.61,VALID,0,VALID,96.3222,VALID,0,VALID,25.5123,VALID,335,VALID,0.196094,
2010-12-16, 00:25:05,VALID,1001.6,VALID,0,VALID,96.368,VALID,0,VALID,25.5123,VALID,358,VALID,1.06328,
2010-12-16, 00:26:05,VALID,1001.6,VALID,0,VALID,96.0629,VALID,0,VALID,25.5337,VALID,353,VALID,0.980469,
2010-12-16, 00:27:05,VALID,1001.59,VALID,0,VALID,95.6738,VALID,0,VALID,25.5318,VALID,350,VALID,0.644922,
2010-12-16, 00:28:05,VALID,1001.57,VALID,0,VALID,95.3229,VALID,0,VALID,25.5727,VALID,351,VALID,0.920703,
2010-12-16, 00:29:05,VALID,1001.55,VALID,0,VALID,95.1474,VALID,0,VALID,25.5921,VALID,331,VALID,0.328125,
2010-12-16, 00:30:05,VALID,1001.52,VALID,0,VALID,95.4602,VALID,0,VALID,25.5707,VALID,331,VALID,0.122656,
2010-12-16, 00:31:05,VALID,1001.52,VALID,0,VALID,95.2389,VALID,0,VALID,25.5921,VALID,344,VALID,0.883984,
2010-12-16, 00:32:05,VALID,1001.5,VALID,0,VALID,94.8956,VALID,0,VALID,25.6116,VALID,338,VALID,0.529297,
2010-12-16, 00:33:05,VALID,1001.49,VALID,0,VALID,94.7431,VALID,0,VALID,25.6097,VALID,13,VALID,0.657422,
2010-12-16, 00:34:05,VALID,1001.48,VALID,0,VALID,94.6744,VALID,0,VALID,25.67,VALID,335,VALID,0.389453,
2010-12-16, 00:35:05,VALID,1001.49,VALID,0,VALID,94.6591,VALID,0,VALID,25.6486,VALID,284,VALID,0.374219,
2010-12-16, 00:36:05,VALID,1001.49,VALID,0,VALID,94.4913,VALID,0,VALID,25.6486,VALID,336,VALID,0.421484,
2010-12-16, 00:37:05,VALID,1001.49,VALID,0,VALID,94.2624,VALID,0,VALID,25.6486,VALID,336,VALID,0.554297,
2010-12-16, 00:38:05,VALID,1001.51,VALID,0,VALID,93.5987,VALID,0,VALID,25.67,VALID,353,VALID,0.869922,
2010-12-16, 00:39:05,VALID,1001.52,VALID,0,VALID,93.1257,VALID,0,VALID,25.6876,VALID,355,VALID,1.06367,
2010-12-16, 00:40:05,VALID,1001.49,VALID,0,VALID,93.6598,VALID,0,VALID,25.7071,VALID,317,VALID,0.34375,
2010-12-16, 00:41:05,VALID,1001.52,VALID,0,VALID,92.7519,VALID,0,VALID,25.6895,VALID,348,VALID,0.936328,
2010-12-16, 00:42:05,VALID,1001.5,VALID,0,VALID,93.1257,VALID,0,VALID,25.6681,VALID,342,VALID,0.517969,
2010-12-16, 00:43:05,VALID,1001.49,VALID,0,VALID,93.3394,VALID,0,VALID,25.6486,VALID,348,VALID,0.997656,
2010-12-16, 00:44:05,VALID,1001.5,VALID,0,VALID,93.3012,VALID,0,VALID,25.6097,VALID,335,VALID,0.746484,
2010-12-16, 00:45:05,VALID,1001.47,VALID,0,VALID,93.1334,VALID,0,VALID,25.6116,VALID,343,VALID,1.14492,
2010-12-16, 00:46:05,VALID,1001.47,VALID,0,VALID,93.5148,VALID,0,VALID,25.5902,VALID,352,VALID,0.643359,
2010-12-16, 00:47:05,VALID,1001.5,VALID,0,VALID,92.8053,VALID,0,VALID,25.6116,VALID,356,VALID,0.680469,
2010-12-16, 00:48:05,VALID,1001.47,VALID,0,VALID,92.8816,VALID,0,VALID,25.6097,VALID,332,VALID,0.860937,
2010-12-16, 00:49:05,VALID,1001.46,VALID,0,VALID,93.2707,VALID,0,VALID,25.6116,VALID,349,VALID,0.470703,
2010-12-16, 00:50:05,VALID,1001.48,VALID,0,VALID,93.2554,VALID,0,VALID,25.5902,VALID,347,VALID,0.833594,
2010-12-16, 00:51:05,VALID,1001.52,VALID,0,VALID,93.469,VALID,0,VALID,25.5707,VALID,351,VALID,0.858203,
2010-12-16, 00:52:05,VALID,1001.5,VALID,0,VALID,94.1022,VALID,0,VALID,25.5727,VALID,321,VALID,0.222266,
2010-12-16, 00:53:05,VALID,1001.5,VALID,0,VALID,94.0946,VALID,0,VALID,25.5318,VALID,335,VALID,0.950781,
2010-12-16, 00:54:05,VALID,1001.5,VALID,0,VALID,93.9725,VALID,0,VALID,25.5746,VALID,346,VALID,1.23945,
2010-12-16, 00:55:05,VALID,1001.47,VALID,0,VALID,93.6598,VALID,0,VALID,25.5513,VALID,330,VALID,0.716406,
2010-12-16, 00:56:05,VALID,1001.45,VALID,0,VALID,93.8505,VALID,0,VALID,25.5707,VALID,343,VALID,0.564844,
2010-12-16, 00:57:05,VALID,1001.46,VALID,0,VALID,94.2472,VALID,0,VALID,25.5318,VALID,352,VALID,0.340625,
2010-12-16, 00:58:05,VALID,1001.44,VALID,0,VALID,94.0183,VALID,0,VALID,25.5318,VALID,6,VALID,0.470313,
2010-12-16, 00:59:05,VALID,1001.44,VALID,0,VALID,93.8047,VALID,0,VALID,25.5513,VALID,360,VALID,0.691016,
2010-12-16, 01:00:05,VALID,1001.4,VALID,0,VALID,93.3241,VALID,0,VALID,25.5727,VALID,350,VALID,1.10703,
2010-12-16, 01:01:05,VALID,1001.42,VALID,0,VALID,93.3775,VALID,0,VALID,25.5513,VALID,323,VALID,0.491016,
2010-12-16, 01:02:05,VALID,1001.41,VALID,0,VALID,93.4233,VALID,0,VALID,25.5921,VALID,355,VALID,0.885156,
2010-12-16, 01:03:05,VALID,1001.39,VALID,0,VALID,93.2783,VALID,0,VALID,25.5727,VALID,353,VALID,1.35391,
2010-12-16, 01:04:05,VALID,1001.4,VALID,0,VALID,93.4996,VALID,0,VALID,25.5921,VALID,342,VALID,0.536328,
2010-12-16, 01:05:05,VALID,1001.39,VALID,0,VALID,93.7971,VALID,0,VALID,25.5513,VALID,328,VALID,0.0496094,
2010-12-16, 01:06:05,VALID,1001.36,VALID,0,VALID,93.675,VALID,0,VALID,25.5532,VALID,12,VALID,0.822656,
2010-12-16, 01:07:05,VALID,1001.34,VALID,0,VALID,94.0259,VALID,0,VALID,25.5532,VALID,355,VALID,1.08281,
2010-12-16, 01:08:05,VALID,1001.35,VALID,0,VALID,94.0336,VALID,0,VALID,25.5532,VALID,343,VALID,0.49375,
2010-12-16, 01:09:05,VALID,1001.33,VALID,0,VALID,94.2777,VALID,0,VALID,25.5337,VALID,331,VALID,0.404687,
2010-12-16, 01:10:05,VALID,1001.32,VALID,0,VALID,94.0565,VALID,0.100563,VALID,25.5123,VALID,345,VALID,0.682813,
2010-12-16, 01:11:05,VALID,1001.31,VALID,0,VALID,94.2014,VALID,0.100563,VALID,25.4909,VALID,351,VALID,0.711719,
2010-12-16, 01:12:05,VALID,1001.3,VALID,0,VALID,94.5829,VALID,0,VALID,25.4928,VALID,349,VALID,0.295703,
2010-12-16, 01:13:05,VALID,1001.27,VALID,0,VALID,94.9109,VALID,0,VALID,25.4734,VALID,351,VALID,0.326172,
2010-12-16, 01:14:05,VALID,1001.23,VALID,0,VALID,94.766,VALID,0.100563,VALID,25.4539,VALID,353,VALID,0.658594,
2010-12-16, 01:15:05,VALID,1001.23,VALID,0,VALID,95.0101,VALID,0,VALID,25.4149,VALID,353,VALID,0.540234,
2010-12-16, 01:16:05,VALID,1001.2,VALID,0,VALID,95.3457,VALID,0,VALID,25.4149,VALID,339,VALID,0.558594,
2010-12-16, 01:17:05,VALID,1001.17,VALID,0,VALID,95.1245,VALID,0.100563,VALID,25.4344,VALID,357,VALID,0.329688,
2010-12-16, 01:18:05,VALID,1001.16,VALID,0,VALID,95.3076,VALID,0.100563,VALID,25.413,VALID,353,VALID,0.210156,
2010-12-16, 01:19:05,VALID,1001.14,VALID,0,VALID,95.2466,VALID,0,VALID,25.413,VALID,341,VALID,0.633594,
2010-12-16, 01:20:05,VALID,1001.11,VALID,0,VALID,95.4373,VALID,0,VALID,25.413,VALID,357,VALID,0.641797,
2010-12-16, 01:21:05,VALID,1001.1,VALID,0,VALID,95.4678,VALID,0.100563,VALID,25.413,VALID,342,VALID,0.342969,
2010-12-16, 01:22:05,VALID,1001.08,VALID,0,VALID,95.9027,VALID,0,VALID,25.4344,VALID,341,VALID,0.216797,
2010-12-16, 01:23:05,VALID,1001.05,VALID,0,VALID,95.9789,VALID,0.100563,VALID,25.413,VALID,340,VALID,1.03203,
2010-12-16, 01:24:05,VALID,1001.08,VALID,0,VALID,95.6585,VALID,0,VALID,25.4344,VALID,342,VALID,1.00391,
2010-12-16, 01:25:05,VALID,1001.05,VALID,0,VALID,95.3229,VALID,0,VALID,25.4344,VALID,342,VALID,1.36992,
2010-12-16, 01:26:05,VALID,1001.08,VALID,0,VALID,95.422,VALID,0,VALID,25.4344,VALID,359,VALID,0.984766,
2010-12-16, 01:27:05,VALID,1001.04,VALID,0,VALID,95.361,VALID,0,VALID,25.4539,VALID,360,VALID,0.563672,
2010-12-16, 01:28:05,VALID,1001.06,VALID,0,VALID,95.4449,VALID,0,VALID,25.4539,VALID,337,VALID,0.501953,
2010-12-16, 01:29:05,VALID,1001.02,VALID,0,VALID,95.6509,VALID,0,VALID,25.4344,VALID,331,VALID,0.620313,
2010-12-16, 01:30:05,VALID,1001,VALID,0,VALID,96.0095,VALID,0,VALID,25.4149,VALID,347,VALID,0.15,
2010-12-16, 01:31:05,VALID,1001,VALID,0,VALID,96.2383,VALID,0,VALID,25.4149,VALID,29,VALID,0.612891,
2010-12-16, 01:32:05,VALID,1000.96,VALID,0,VALID,96.3985,VALID,0,VALID,25.4363,VALID,349,VALID,0.685156,
2010-12-16, 01:33:05,VALID,1000.97,VALID,0,VALID,96.4825,VALID,0,VALID,25.4363,VALID,307,VALID,0.103516,
2010-12-16, 01:34:05,VALID,1000.96,VALID,0,VALID,96.2002,VALID,0,VALID,25.4149,VALID,343,VALID,0.446094,
2010-12-16, 01:35:05,VALID,1000.94,VALID,0,VALID,96.0476,VALID,0,VALID,25.4558,VALID,348,VALID,0.627734,
2010-12-16, 01:36:05,VALID,1000.9,VALID,0,VALID,95.9332,VALID,0,VALID,25.4558,VALID,4,VALID,0.656641,
2010-12-16, 01:37:05,VALID,1000.92,VALID,0,VALID,95.5594,VALID,0,VALID,25.4753,VALID,341,VALID,0.945703,
2010-12-16, 01:38:05,VALID,1000.9,VALID,0,VALID,95.4602,VALID,0,VALID,25.4753,VALID,352,VALID,0.784766,
2010-12-16, 01:39:05,VALID,1000.87,VALID,0,VALID,95.2618,VALID,0,VALID,25.5142,VALID,355,VALID,0.894531,
2010-12-16, 01:40:05,VALID,1000.87,VALID,0,VALID,95.3076,VALID,0,VALID,25.5532,VALID,346,VALID,0.805078,
2010-12-16, 01:41:05,VALID,1000.84,VALID,0,VALID,94.9796,VALID,0,VALID,25.5727,VALID,341,VALID,1.24688,
2010-12-16, 01:42:05,VALID,1000.84,VALID,0,VALID,94.9033,VALID,0,VALID,25.6116,VALID,322,VALID,0.375391,
2010-12-16, 01:43:05,VALID,1000.81,VALID,0,VALID,94.7125,VALID,0,VALID,25.6097,VALID,320,VALID,0.711719,
2010-12-16, 01:44:05,VALID,1000.81,VALID,0,VALID,94.6134,VALID,0,VALID,25.6097,VALID,335,VALID,0.675391,
2010-12-16, 01:45:04,VALID,1000.79,VALID,0,VALID,94.4913,VALID,0,VALID,25.6311,VALID,347,VALID,1.50547,
2010-12-16, 01:46:04,VALID,1000.76,VALID,0,VALID,94.3311,VALID,0,VALID,25.67,VALID,356,VALID,0.819141,
2010-12-16, 01:47:04,VALID,1000.78,VALID,0,VALID,94.4379,VALID,0,VALID,25.6506,VALID,347,VALID,0.991406,
2010-12-16, 01:48:04,VALID,1000.76,VALID,0,VALID,94.5981,VALID,0,VALID,25.6486,VALID,348,VALID,0.686328,
2010-12-16, 01:49:04,VALID,1000.75,VALID,0,VALID,94.5752,VALID,0,VALID,25.6486,VALID,331,VALID,0.578906,
2010-12-16, 01:50:04,VALID,1000.74,VALID,0,VALID,94.8194,VALID,0,VALID,25.6506,VALID,336,VALID,0.753125,
2010-12-16, 01:51:04,VALID,1000.74,VALID,0,VALID,94.6286,VALID,0,VALID,25.6292,VALID,350,VALID,0.740625,
2010-12-16, 01:52:04,VALID,1000.72,VALID,0,VALID,94.6363,VALID,0,VALID,25.6097,VALID,339,VALID,0.927734,
2010-12-16, 01:53:04,VALID,1000.68,VALID,0,VALID,94.7049,VALID,0,VALID,25.6311,VALID,358,VALID,0.875391,
2010-12-16, 01:54:04,VALID,1000.7,VALID,0,VALID,94.4303,VALID,0,VALID,25.6311,VALID,347,VALID,1.36914,
2010-12-16, 01:55:04,VALID,1000.71,VALID,0,VALID,94.5676,VALID,0,VALID,25.6486,VALID,343,VALID,0.585938,
2010-12-16, 01:56:04,VALID,1000.69,VALID,0,VALID,94.7202,VALID,0.100563,VALID,25.6292,VALID,346,VALID,0.479688,
2010-12-16, 01:57:04,VALID,1000.67,VALID,0,VALID,94.827,VALID,0,VALID,25.6292,VALID,351,VALID,0.385938,
2010-12-16, 01:58:04,VALID,1000.7,VALID,0,VALID,94.7888,VALID,0,VALID,25.5902,VALID,338,VALID,0.548828,
2010-12-16, 01:59:04,VALID,1000.67,VALID,0,VALID,94.9872,VALID,0,VALID,25.5883,VALID,339,VALID,0.147656,
2010-12-16, 02:00:04,VALID,1000.66,VALID,0,VALID,95.1779,VALID,0.100563,VALID,25.5902,VALID,12,VALID,0.607031,
2010-12-16, 02:01:04,VALID,1000.64,VALID,0,VALID,95.1245,VALID,0,VALID,25.5513,VALID,11,VALID,0.483594,
2010-12-16, 02:02:04,VALID,1000.64,VALID,0,VALID,94.827,VALID,0.100563,VALID,25.5104,VALID,353,VALID,1.05273,
2010-12-16, 02:03:04,VALID,1000.6,VALID,0,VALID,94.7431,VALID,0,VALID,25.5513,VALID,326,VALID,0.269922,
2010-12-16, 02:04:04,VALID,1000.58,VALID,0,VALID,94.8117,VALID,0.100563,VALID,25.5318,VALID,327,VALID,0.444922,
2010-12-16, 02:05:04,VALID,1000.58,VALID,0,VALID,95.2389,VALID,0.100563,VALID,25.5104,VALID,354,VALID,0.428516,
2010-12-16, 02:06:04,VALID,1000.55,VALID,0,VALID,95.4068,VALID,0,VALID,25.4928,VALID,353,VALID,0.664063,
2010-12-16, 02:07:04,VALID,1000.55,VALID,0,VALID,95.3534,VALID,0.100563,VALID,25.4734,VALID,350,VALID,0.726172,
2010-12-16, 02:08:04,VALID,1000.52,VALID,0,VALID,95.2695,VALID,0,VALID,25.4928,VALID,351,VALID,0.917578,
2010-12-16, 02:09:04,VALID,1000.51,VALID,0,VALID,95.2161,VALID,0.100563,VALID,25.4928,VALID,353,VALID,0.829297,
2010-12-16, 02:10:04,VALID,1000.51,VALID,0,VALID,95.094,VALID,0,VALID,25.4928,VALID,338,VALID,0.761328,
2010-12-16, 02:11:04,VALID,1000.49,VALID,0,VALID,95.0177,VALID,0,VALID,25.4928,VALID,354,VALID,0.453125,
2010-12-16, 02:12:04,VALID,1000.49,VALID,0,VALID,95.094,VALID,0,VALID,25.5142,VALID,358,VALID,0.882031,
2010-12-16, 02:13:04,VALID,1000.5,VALID,0,VALID,95.0635,VALID,0,VALID,25.4948,VALID,341,VALID,0.495703,
2010-12-16, 02:14:04,VALID,1000.46,VALID,0,VALID,95.4297,VALID,0,VALID,25.4539,VALID,342,VALID,0.777344,
2010-12-16, 02:15:04,VALID,1000.47,VALID,0,VALID,95.9179,VALID,0,VALID,25.4558,VALID,356,VALID,0.453125,
2010-12-16, 02:16:04,VALID,1000.44,VALID,0,VALID,96.3222,VALID,0,VALID,25.4558,VALID,345,VALID,1.55898,
2010-12-16, 02:17:04,VALID,1000.42,VALID,0,VALID,96.3299,VALID,0,VALID,25.4753,VALID,338,VALID,0.7875,
2010-12-16, 02:18:04,VALID,1000.41,VALID,0,VALID,96.3375,VALID,0,VALID,25.4539,VALID,344,VALID,0.907031,
2010-12-16, 02:19:04,VALID,1000.4,VALID,0,VALID,96.3909,VALID,0,VALID,25.4948,VALID,350,VALID,1.06484,
2010-12-16, 02:20:04,VALID,1000.37,VALID,0,VALID,96.3833,VALID,0,VALID,25.4948,VALID,337,VALID,0.399609,
2010-12-16, 02:21:04,VALID,1000.38,VALID,0,VALID,96.3451,VALID,0,VALID,25.5142,VALID,351,VALID,0.762109,
2010-12-16, 02:22:04,VALID,1000.37,VALID,0,VALID,96.6045,VALID,0,VALID,25.5337,VALID,349,VALID,0.711328,
2010-12-16, 02:23:04,VALID,1000.31,VALID,0,VALID,96.1392,VALID,0,VALID,25.5532,VALID,260,VALID,0.613281,
2010-12-16, 02:24:04,VALID,1000.34,VALID,0,VALID,96.4367,VALID,0,VALID,25.5727,VALID,351,VALID,0.767578,
2010-12-16, 02:25:04,VALID,1000.34,VALID,0,VALID,96.368,VALID,0,VALID,25.5513,VALID,354,VALID,0.499219,
2010-12-16, 02:26:04,VALID,1000.34,VALID,0,VALID,96.6045,VALID,0,VALID,25.5921,VALID,328,VALID,0.868359,
2010-12-16, 02:27:04,VALID,1000.34,VALID,0,VALID,96.3604,VALID,0,VALID,25.6116,VALID,357,VALID,1.0793,
2010-12-16, 02:28:04,VALID,1000.35,VALID,0,VALID,96.1239,VALID,0,VALID,25.6116,VALID,350,VALID,0.574609,
2010-12-16, 02:29:04,VALID,1000.37,VALID,0,VALID,96.2841,VALID,0,VALID,25.5921,VALID,290,VALID,0.443359,
2010-12-16, 02:30:04,VALID,1000.34,VALID,0,VALID,96.5893,VALID,0,VALID,25.5707,VALID,346,VALID,0.839844,
2010-12-16, 02:31:04,VALID,1000.37,VALID,0,VALID,96.7113,VALID,0,VALID,25.5921,VALID,340,VALID,1.06719,
2010-12-16, 02:32:04,VALID,1000.4,VALID,0,VALID,96.7342,VALID,0,VALID,25.5921,VALID,334,VALID,1.18125,
2010-12-16, 02:33:04,VALID,1000.38,VALID,0,VALID,96.8258,VALID,0,VALID,25.5902,VALID,314,VALID,0.219922,
2010-12-16, 02:34:04,VALID,1000.35,VALID,0,VALID,96.7723,VALID,0,VALID,25.5921,VALID,307,VALID,0.929297,
2010-12-16, 02:35:04,VALID,1000.33,VALID,0,VALID,96.5587,VALID,0,VALID,25.5902,VALID,347,VALID,1.54336,
2010-12-16, 02:36:04,VALID,1000.31,VALID,0,VALID,96.4519,VALID,0,VALID,25.5902,VALID,342,VALID,1.06641,
2010-12-16, 02:37:04,VALID,1000.32,VALID,0,VALID,96.4443,VALID,0,VALID,25.6097,VALID,341,VALID,0.633984,
2010-12-16, 02:38:04,VALID,1000.29,VALID,0,VALID,96.5435,VALID,0,VALID,25.6116,VALID,8,VALID,1.08047,
2010-12-16, 02:39:04,VALID,1000.29,VALID,0,VALID,96.9936,VALID,0,VALID,25.5707,VALID,287,VALID,0.123047,
2010-12-16, 02:40:04,VALID,1000.28,VALID,0,VALID,97.0928,VALID,0,VALID,25.5727,VALID,98,VALID,0.484375,
2010-12-16, 02:41:04,VALID,1000.25,VALID,0,VALID,97.4055,VALID,0,VALID,25.5532,VALID,11,VALID,0.303516,
2010-12-16, 02:42:04,VALID,1000.26,VALID,0,VALID,97.3827,VALID,0,VALID,25.5123,VALID,339,VALID,0.705859,
2010-12-16, 02:43:04,VALID,1000.22,VALID,0,VALID,97.6039,VALID,0,VALID,25.5337,VALID,351,VALID,1.27148,
2010-12-16, 02:44:04,VALID,1000.21,VALID,0,VALID,97.5886,VALID,0,VALID,25.5123,VALID,337,VALID,0.201172,
2010-12-16, 02:45:04,VALID,1000.21,VALID,0,VALID,97.6802,VALID,0,VALID,25.4928,VALID,327,VALID,0.923437,
2010-12-16, 02:46:04,VALID,1000.14,VALID,0,VALID,97.7488,VALID,0,VALID,25.4928,VALID,341,VALID,0.790625,
2010-12-16, 02:47:04,VALID,1000.19,VALID,0,VALID,97.9396,VALID,0,VALID,25.4928,VALID,5,VALID,0.613281,
2010-12-16, 02:48:04,VALID,1000.17,VALID,0,VALID,97.8785,VALID,0,VALID,25.4948,VALID,349,VALID,0.866797,
2010-12-16, 02:49:04,VALID,1000.19,VALID,0,VALID,98.2218,VALID,0,VALID,25.4948,VALID,279,VALID,0.36875,
2010-12-16, 02:50:04,VALID,1000.16,VALID,0,VALID,98.4354,VALID,0,VALID,25.4948,VALID,4,VALID,1,
2010-12-16, 02:51:04,VALID,1000.15,VALID,0,VALID,98.2371,VALID,0,VALID,25.4734,VALID,338,VALID,0.851953,
2010-12-16, 02:52:04,VALID,1000.15,VALID,0,VALID,98.4965,VALID,0,VALID,25.5142,VALID,357,VALID,1.10625,
2010-12-16, 02:53:04,VALID,1000.12,VALID,0,VALID,98.0006,VALID,0,VALID,25.5142,VALID,357,VALID,0.983203,
2010-12-16, 02:54:04,VALID,1000.12,VALID,0,VALID,97.7794,VALID,0,VALID,25.5532,VALID,1,VALID,0.967188,
2010-12-16, 02:55:04,VALID,1000.11,VALID,0,VALID,97.6954,VALID,0,VALID,25.5513,VALID,354,VALID,0.980078,
2010-12-16, 02:56:04,VALID,1000.13,VALID,0,VALID,97.7946,VALID,0,VALID,25.5727,VALID,291,VALID,0.404687,
2010-12-16, 02:57:04,VALID,1000.14,VALID,0,VALID,98.0845,VALID,0,VALID,25.5513,VALID,328,VALID,0.459766,
2010-12-16, 02:58:04,VALID,1000.13,VALID,0,VALID,98.3134,VALID,0,VALID,25.5513,VALID,337,VALID,0.549609,
2010-12-16, 02:59:04,VALID,1000.1,VALID,0,VALID,98.2218,VALID,0,VALID,25.5318,VALID,352,VALID,0.821875,
2010-12-16, 03:00:04,VALID,1000.08,VALID,0,VALID,98.2066,VALID,0,VALID,25.5513,VALID,351,VALID,0.918359,
2010-12-16, 03:01:04,VALID,1000.09,VALID,0,VALID,97.8862,VALID,0,VALID,25.5707,VALID,347,VALID,0.207422,
2010-12-16, 03:02:04,VALID,1000.03,VALID,0,VALID,97.6192,VALID,0,VALID,25.5707,VALID,320,VALID,1.16914,
2010-12-16, 03:03:04,VALID,1000.04,VALID,0,VALID,97.314,VALID,0,VALID,25.5707,VALID,280,VALID,0.289063,
2010-12-16, 03:04:04,VALID,1000.05,VALID,0,VALID,97.642,VALID,0,VALID,25.5727,VALID,331,VALID,1.16523,
2010-12-16, 03:05:04,VALID,1000.03,VALID,0,VALID,97.5734,VALID,0,VALID,25.5727,VALID,344,VALID,0.620313,
2010-12-16, 03:06:04,VALID,1000.01,VALID,0,VALID,97.6497,VALID,0,VALID,25.5493,VALID,357,VALID,0.911328,
2010-12-16, 03:07:04,VALID,999.996,VALID,0,VALID,98.0159,VALID,0,VALID,25.5513,VALID,352,VALID,0.995703,
2010-12-16, 03:08:04,VALID,1000.02,VALID,0,VALID,98.1684,VALID,0,VALID,25.5513,VALID,303,VALID,0.496094,
2010-12-16, 03:09:04,VALID,1000.01,VALID,0,VALID,98.321,VALID,0,VALID,25.5532,VALID,343,VALID,0.796094,
2010-12-16, 03:10:04,VALID,1000.01,VALID,0,VALID,98.7025,VALID,0,VALID,25.5318,VALID,349,VALID,0.862109,
2010-12-16, 03:11:04,VALID,999.999,VALID,0,VALID,98.8703,VALID,0,VALID,25.5123,VALID,352,VALID,1.12461,
2010-12-16, 03:12:04,VALID,1000,VALID,0,VALID,98.7482,VALID,0,VALID,25.5337,VALID,341,VALID,0.989844,
2010-12-16, 03:13:04,VALID,999.981,VALID,0,VALID,98.8627,VALID,0,VALID,25.5532,VALID,347,VALID,0.812891,
2010-12-16, 03:14:04,VALID,999.975,VALID,0,VALID,98.9924,VALID,0,VALID,25.5337,VALID,349,VALID,0.890234,
2010-12-16, 03:15:04,VALID,999.995,VALID,0,VALID,99.0534,VALID,0,VALID,25.5318,VALID,327,VALID,0.460547,
2010-12-16, 03:16:04,VALID,1000.01,VALID,0,VALID,99.3509,VALID,0,VALID,25.5123,VALID,346,VALID,0.715625,
2010-12-16, 03:17:04,VALID,1000.01,VALID,0,VALID,99.6179,VALID,0,VALID,25.5123,VALID,336,VALID,0.831641,
2010-12-16, 03:18:04,VALID,1000.01,VALID,0,VALID,99.946,VALID,0,VALID,25.5123,VALID,332,VALID,0.323438,
2010-12-16, 03:19:04,VALID,1000.05,VALID,0,VALID,100.16,VALID,0,VALID,25.5123,VALID,346,VALID,0.795703,
2010-12-16, 03:20:04,VALID,1000.04,VALID,0,VALID,100.602,VALID,0,VALID,25.4928,VALID,352,VALID,0.604297,
2010-12-16, 03:21:04,VALID,1000.03,VALID,0,VALID,101.495,VALID,0,VALID,25.5337,VALID,5,VALID,1.0832,
2010-12-16, 03:22:04,VALID,1000.04,VALID,0,VALID,101.899,VALID,0,VALID,25.5318,VALID,348,VALID,1.16367,
2010-12-16, 03:23:04,VALID,1000.04,VALID,0,VALID,101.395,VALID,0,VALID,25.5727,VALID,353,VALID,0.405078,
2010-12-16, 03:24:04,VALID,1000.04,VALID,0,VALID,100.907,VALID,0,VALID,25.5513,VALID,331,VALID,0.658203,
2010-12-16, 03:25:04,VALID,1000.01,VALID,0,VALID,100.9,VALID,0,VALID,25.5532,VALID,301,VALID,0.348828,
2010-12-16, 03:26:04,VALID,1000.04,VALID,0,VALID,100.816,VALID,0,VALID,25.5337,VALID,325,VALID,0.187109,
2010-12-16, 03:27:04,VALID,1000.05,VALID,0,VALID,101.029,VALID,0,VALID,25.5142,VALID,330,VALID,0.348828,
2010-12-16, 03:28:04,VALID,1000.07,VALID,0,VALID,101.418,VALID,0,VALID,25.4734,VALID,351,VALID,0.505469,
2010-12-16, 03:29:04,VALID,1000.08,VALID,0,VALID,102.09,VALID,0,VALID,25.4558,VALID,346,VALID,0.753516,
2010-12-16, 03:30:04,VALID,1000.09,VALID,0,VALID,102.494,VALID,0,VALID,25.4344,VALID,341,VALID,0.687109,
2010-12-16, 03:31:04,VALID,1000.1,VALID,0,VALID,103.379,VALID,0,VALID,25.4344,VALID,351,VALID,1.20352,
2010-12-16, 03:32:04,VALID,1000.13,VALID,0,VALID,103.57,VALID,0,VALID,25.4344,VALID,348,VALID,0.520312,
2010-12-16, 03:33:04,VALID,1000.15,VALID,0,VALID,103.898,VALID,0,VALID,25.4149,VALID,358,VALID,1.33008,
2010-12-16, 03:34:04,VALID,1000.16,VALID,0,VALID,103.577,VALID,0,VALID,25.4734,VALID,296,VALID,0.766406,
2010-12-16, 03:35:04,VALID,1000.22,VALID,0,VALID,103.059,VALID,0,VALID,25.4734,VALID,360,VALID,0.917188,
2010-12-16, 03:36:04,VALID,1000.19,VALID,0,VALID,103.028,VALID,0,VALID,25.4948,VALID,358,VALID,0.696875,
2010-12-16, 03:37:04,VALID,1000.21,VALID,0,VALID,102.906,VALID,0,VALID,25.4539,VALID,332,VALID,0.489844,
2010-12-16, 03:38:04,VALID,1000.21,VALID,0,VALID,103.066,VALID,0,VALID,25.4734,VALID,357,VALID,0.767187,
2010-12-16, 03:39:04,VALID,1000.2,VALID,0,VALID,103.051,VALID,0,VALID,25.4734,VALID,359,VALID,0.854297,
2010-12-16, 03:40:04,VALID,1000.24,VALID,0,VALID,102.891,VALID,0,VALID,25.4734,VALID,353,VALID,1.37266,
2010-12-16, 03:41:04,VALID,1000.2,VALID,0,VALID,102.692,VALID,0,VALID,25.4928,VALID,349,VALID,0.817187,
2010-12-16, 03:42:04,VALID,1000.2,VALID,0,VALID,103.249,VALID,0,VALID,25.4948,VALID,339,VALID,0.539063,
2010-12-16, 03:43:04,VALID,1000.21,VALID,0,VALID,104,VALID,0,VALID,25.4539,VALID,351,VALID,0.902344,
2010-12-16, 03:44:04,VALID,1000.22,VALID,0,VALID,104,VALID,0,VALID,25.4149,VALID,341,VALID,0.601172,